"Period start","avg(HW err(1)/warn(2) (#))","avg(Visibility (m))","avg(Weather code (#))","avg(Precip intensity (mm/h))","min(HW err(1)/warn(2) (#))","max(HW err(1)/warn(2) (#))","std(HW err(1)/warn(2) (#))","med(HW err(1)/warn(2) (#))","min(Visibility (m))","max(Visibility (m))","std(Visibility (m))","med(Visibility (m))","min(Weather code (#))","max(Weather code (#))","std(Weather code (#))","med(Weather code (#))","min(Precip intensity (mm/h))","max(Precip intensity (mm/h))","std(Precip intensity (mm/h))","med(Precip intensity (mm/h))"
2014-03-23 00:00:00,2,44820,0,0.00,2,2,0,2,36120,50000,4489,45164,0,0,0,0,0.00,0.00,0.00,0.00
2014-03-23 00:10:00,2,35006,0,0.00,2,2,0,2,25278,46136,6714,33414,0,0,0,0,0.00,0.00,0.00,0.00
2014-03-23 00:20:00,2,34187,0,0.00,2,2,0,2,24008,46555,6621,32790,0,0,0,0,0.00,0.00,0.00,0.00
2014-03-23 00:30:00,2,34787,0,0.00,2,2,0,2,24014,50000,8342,32617,0,0,0,0,0.00,0.00,0.00,0.00
2014-03-23 00:40:00,2,41849,0,0.00,2,2,0,2,31193,50000,6199,42866,0,0,0,0,0.00,0.00,0.00,0.00
2014-03-23 00:50:00,2,40687,0,0.00,2,2,0,2,32696,46783,4912,41734,0,0,0,0,0.00,0.00,0.00,0.00
2014-03-23 01:00:00,2,35295,0,0.00,2,2,0,2,28060,45450,5679,34698,0,0,0,0,0.00,0.00,0.00,0.00
2014-03-23 01:10:00,2,34902,0,0.00,2,2,0,2,27262,45094,5209,35068,0,0,0,0,0.00,0.00,0.00,0.00
2014-03-23 01:20:00,2,35708,0,0.00,2,2,0,2,21022,50000,9408,35876,0,0,0,0,0.00,0.00,0.00,0.00
2014-03-23 01:30:00,2,39317,0,0.00,2,2,0,2,26206,47677,6327,39612,0,0,0,0,0.00,0.00,0.00,0.00
2014-03-23 01:40:00,2,34753,0,0.00,2,2,0,2,21670,50000,8259,34258,0,0,0,0,0.00,0.00,0.00,0.00
2014-03-23 01:50:00,2,31302,0,0.00,2,2,0,2,18304,41076,5799,31760,0,0,0,0,0.00,0.00,0.00,0.00
2014-03-23 02:00:00,2,43566,0,0.00,2,2,0,2,33229,50000,5275,43404,0,0,0,0,0.00,0.00,0.00,0.00
2014-03-23 02:10:00,2,35344,0,0.00,2,2,0,2,25470,47200,6808,34812,0,0,0,0,0.00,0.00,0.00,0.00
2014-03-23 02:20:00,2,35031,0,0.00,2,2,0,2,21061,50000,9176,32842,0,0,0,0,0.00,0.00,0.00,0.00
2014-03-23 02:30:00,2,41406,0,0.00,2,2,0,2,35561,48433,3848,40378,0,0,0,0,0.00,0.00,0.00,0.00
2014-03-23 02:40:00,2,35044,0,0.00,2,2,0,2,23421,47319,7775,35010,0,0,0,0,0.00,0.00,0.00,0.00
2014-03-23 02:50:00,2,42782,0,0.00,2,2,0,2,37195,50000,5110,40417,0,0,0,0,0.00,0.00,0.00,0.00
2014-03-23 03:00:00,2,35586,0,0.00,2,2,0,2,17902,49868,10584,36656,0,0,0,0,0.00,0.00,0.00,0.00
2014-03-23 03:10:00,2,35864,0,0.00,2,2,0,2,28590,43988,4549,34344,0,0,0,0,0.00,0.00,0.00,0.00
2014-03-23 03:20:00,2,35142,0,0.00,2,2,0,2,26927,46041,5867,36546,0,0,0,0,0.00,0.00,0.00,0.00
2014-03-23 03:30:00,2,31729,0,0.00,2,2,0,2,22694,43936,6086,31078,0,0,0,0,0.00,0.00,0.00,0.00
2014-03-23 03:40:00,2,32934,0,0.00,2,2,0,2,23899,50000,7299,30292,0,0,0,0,0.00,0.00,0.00,0.00
2014-03-23 03:50:00,2,33187,0,0.00,2,2,0,2,16132,40325,7661,36266,0,0,0,0,0.00,0.00,0.00,0.00
2014-03-23 04:00:00,2,35285,0,0.00,2,2,0,2,19255,47733,8441,36918,0,0,0,0,0.00,0.00,0.00,0.00
2014-03-23 04:10:00,2,33294,0,0.00,2,2,0,2,23600,47277,6527,33398,0,0,0,0,0.00,0.00,0.00,0.00
2014-03-23 04:20:00,2,34486,0,0.00,2,2,0,2,26130,44053,5601,33581,0,0,0,0,0.00,0.00,0.00,0.00
2014-03-23 04:30:00,2,40651,0,0.00,2,2,0,2,30470,50000,6127,40344,0,0,0,0,0.00,0.00,0.00,0.00
2014-03-23 04:40:00,2,36957,0,0.00,2,2,0,2,32087,44497,3366,36585,0,0,0,0,0.00,0.00,0.00,0.00
2014-03-23 04:50:00,2,40920,0,0.00,2,2,0,2,30007,48905,6124,43567,0,0,0,0,0.00,0.00,0.00,0.00
2014-03-23 05:00:00,2,38324,0,0.00,2,2,0,2,31730,45143,4117,39472,0,0,0,0,0.00,0.00,0.00,0.00
2014-03-23 05:10:00,2,40878,0,0.00,2,2,0,2,26701,50000,7137,41494,0,0,0,0,0.00,0.00,0.00,0.00
2014-03-23 05:20:00,2,42104,0,0.00,2,2,0,2,19645,50000,10920,47976,0,0,0,0,0.00,0.00,0.00,0.00
2014-03-23 05:30:00,2,39602,0,0.00,2,2,0,2,31278,50000,6971,36461,0,0,0,0,0.00,0.00,0.00,0.00
2014-03-23 05:40:00,2,38717,0,0.00,2,2,0,2,29807,50000,7642,36002,0,0,0,0,0.00,0.00,0.00,0.00
2014-03-23 05:50:00,2,38867,0,0.00,2,2,0,2,27896,48378,6250,38910,0,0,0,0,0.00,0.00,0.00,0.00
2014-03-23 06:00:00,2,36292,0,0.00,2,2,0,2,27078,40475,4309,38133,0,0,0,0,0.00,0.00,0.00,0.00
2014-03-23 06:10:00,2,44293,0,0.00,2,2,0,2,36278,50000,4034,43780,0,0,0,0,0.00,0.00,0.00,0.00
2014-03-23 06:20:00,2,45706,0,0.00,2,2,0,2,40272,50000,3539,45550,0,0,0,0,0.00,0.00,0.00,0.00
2014-03-23 06:30:00,2,42609,0,0.00,2,2,0,2,36997,47033,3159,42880,0,0,0,0,0.00,0.00,0.00,0.00
2014-03-23 06:40:00,2,35282,0,0.00,2,2,0,2,24694,50000,8495,34202,0,0,0,0,0.00,0.00,0.00,0.00
2014-03-23 06:50:00,2,39317,0,0.00,2,2,0,2,33575,49720,4834,38156,0,0,0,0,0.00,0.00,0.00,0.00
2014-03-23 07:00:00,2,37330,0,0.00,2,2,0,2,32315,47584,5141,34443,0,0,0,0,0.00,0.00,0.00,0.00
2014-03-23 07:10:00,2,37336,0,0.00,2,2,0,2,26490,45542,6699,40424,0,0,0,0,0.00,0.00,0.00,0.00
2014-03-23 07:20:00,2,34528,0,0.00,2,2,0,2,19105,47167,8670,35400,0,0,0,0,0.00,0.00,0.00,0.00
2014-03-23 07:30:00,2,41468,0,0.00,2,2,0,2,36299,49292,3882,40688,0,0,0,0,0.00,0.00,0.00,0.00
2014-03-23 07:40:00,2,46890,0,0.00,2,2,0,2,38678,50000,3595,47940,0,0,0,0,0.00,0.00,0.00,0.00
2014-03-23 07:50:00,2,41745,0,0.00,2,2,0,2,26716,50000,7056,42236,0,0,0,0,0.00,0.00,0.00,0.00
2014-03-23 08:00:00,2,48932,0,0.00,2,2,0,2,44390,50000,2139,50000,0,0,0,0,0.00,0.00,0.00,0.00
2014-03-23 08:10:00,2,38189,0,0.00,2,2,0,2,34271,50000,4521,36958,0,0,0,0,0.00,0.00,0.00,0.00
2014-03-23 08:20:00,2,38233,0,0.00,2,2,0,2,29806,50000,7209,36538,0,0,0,0,0.00,0.00,0.00,0.00
2014-03-23 08:30:00,2,44975,0,0.00,2,2,0,2,34159,50000,4592,46139,0,0,0,0,0.00,0.00,0.00,0.00
2014-03-23 08:40:00,2,44884,0,0.00,2,2,0,2,37469,50000,3786,45456,0,0,0,0,0.00,0.00,0.00,0.00
2014-03-23 08:50:00,2,44994,0,0.00,2,2,0,2,36780,50000,4442,44948,0,0,0,0,0.00,0.00,0.00,0.00
2014-03-23 09:00:00,2,48765,0,0.00,2,2,0,2,45334,50000,1361,49090,0,0,0,0,0.00,0.00,0.00,0.00
2014-03-23 09:10:00,2,49978,0,0.00,2,2,0,2,49778,50000,67,50000,0,0,0,0,0.00,0.00,0.00,0.00
2014-03-23 09:20:00,2,49589,0,0.00,2,2,0,2,48122,50000,658,50000,0,0,0,0,0.00,0.00,0.00,0.00
2014-03-23 09:30:00,2,49334,0,0.00,2,2,0,2,44545,50000,1608,50000,0,0,0,0,0.00,0.00,0.00,0.00
2014-03-23 09:40:00,2,47397,0,0.00,2,2,0,2,42619,50000,2829,48674,0,0,0,0,0.00,0.00,0.00,0.00
2014-03-23 09:50:00,2,49137,0,0.00,2,2,0,2,46631,50000,1289,50000,0,0,0,0,0.00,0.00,0.00,0.00
2014-03-23 10:00:00,2,49992,0,0.00,2,2,0,2,49923,50000,23,50000,0,0,0,0,0.00,0.00,0.00,0.00
2014-03-23 10:10:00,2,49999,0,0.00,2,2,0,2,49993,50000,2,50000,0,0,0,0,0.00,0.00,0.00,0.00
2014-03-23 10:20:00,2,49913,0,0.00,2,2,0,2,49134,50000,260,50000,0,0,0,0,0.00,0.00,0.00,0.00
2014-03-23 10:30:00,2,49782,0,0.00,2,2,0,2,47825,50000,652,50000,0,0,0,0,0.00,0.00,0.00,0.00
2014-03-23 10:40:00,2,50000,0,0.00,2,2,0,2,50000,50000,0,50000,0,0,0,0,0.00,0.00,0.00,0.00
2014-03-23 10:50:00,2,49457,0,0.00,2,2,0,2,46129,50000,1203,50000,0,0,0,0,0.00,0.00,0.00,0.00
2014-03-23 11:00:00,2,50000,0,0.00,2,2,0,2,50000,50000,0,50000,0,0,0,0,0.00,0.00,0.00,0.00
2014-03-23 11:10:00,2,50000,0,0.00,2,2,0,2,50000,50000,0,50000,0,0,0,0,0.00,0.00,0.00,0.00
2014-03-23 11:20:00,2,50000,0,0.00,2,2,0,2,50000,50000,0,50000,0,0,0,0,0.00,0.00,0.00,0.00
2014-03-23 11:30:00,2,49558,0,0.00,2,2,0,2,45958,50000,1205,50000,0,0,0,0,0.00,0.00,0.00,0.00
2014-03-23 11:40:00,2,49003,0,0.00,2,2,0,2,45191,50000,1740,50000,0,0,0,0,0.00,0.00,0.00,0.00
2014-03-23 11:50:00,2,28326,37,0.06,2,2,0,2,7148,47624,15297,30420,0,77,37,36,0.00,0.30,0.10,0.00
2014-03-23 12:00:00,2,10338,71,0.13,2,2,0,2,8949,12562,1204,9993,71,71,0,71,0.05,0.40,0.10,0.10
2014-03-23 12:10:00,2,17657,73,0.04,2,2,0,2,13249,24937,3847,17611,71,77,3,71,0.00,0.20,0.06,0.00
2014-03-23 12:20:00,2,6395,71,0.65,2,2,0,2,1852,12030,3705,5781,71,71,0,71,0.10,1.75,0.62,0.40
2014-03-23 12:30:00,2,3887,71,0.93,2,2,0,2,2068,5858,1130,3797,71,71,0,71,0.05,1.60,0.54,1.05
2014-03-23 12:40:00,2,3672,71,0.97,2,2,0,2,2683,4917,759,3402,71,71,0,71,0.30,1.45,0.37,0.98
2014-03-23 12:50:00,2,3248,71,0.47,2,2,0,2,2625,4961,667,3043,71,71,0,71,0.15,1.25,0.32,0.40
2014-03-23 13:00:00,2,5770,72,0.17,2,2,0,2,4539,6931,699,5720,71,77,2,71,0.05,0.45,0.11,0.15
2014-03-23 13:10:00,2,3328,72,0.82,2,2,0,2,2079,4167,822,3650,71,77,2,71,0.30,1.70,0.45,0.68
2014-03-23 13:20:00,2,1736,71,2.59,2,2,0,2,1114,2342,359,1785,71,71,0,71,1.50,4.85,0.91,2.48
2014-03-23 13:30:00,2,2356,71,1.60,2,2,0,2,1688,3549,555,2148,71,71,0,71,0.90,3.50,0.72,1.38
2014-03-23 13:40:00,2,3342,71,0.98,2,2,0,2,1726,4375,925,3583,71,71,0,71,0.70,1.50,0.23,0.93
2014-03-23 13:50:00,2,4254,71,0.77,2,2,0,2,2165,7013,1420,3764,71,71,0,71,0.20,1.45,0.41,0.73
2014-03-23 14:00:00,2,5039,71,0.83,2,2,0,2,2425,9368,2326,4372,71,71,0,71,0.25,2.60,0.63,0.73
2014-03-23 14:10:00,2,4176,71,1.11,2,2,0,2,2744,5832,1093,4667,71,71,0,71,0.50,2.20,0.50,1.18
2014-03-23 14:20:00,2,2679,71,1.62,2,2,0,2,1624,3628,517,2755,71,71,0,71,0.70,3.10,0.74,1.52
2014-03-23 14:30:00,2,2145,71,1.86,2,2,0,2,1508,2735,416,2160,71,71,0,71,1.20,2.85,0.47,1.83
2014-03-23 14:40:00,2,1253,71,3.09,2,2,0,2,820,1521,184,1268,71,71,0,71,1.85,6.00,1.09,2.92
2014-03-23 14:50:00,2,3044,71,1.33,2,2,0,2,2046,4958,892,2772,71,71,0,71,0.35,2.00,0.52,1.25
2014-03-23 15:00:00,2,4271,71,0.74,2,2,0,2,2223,7183,1256,4126,71,71,0,71,0.20,1.40,0.37,0.73
2014-03-23 15:10:00,2,5138,71,0.87,2,2,0,2,2796,9422,1925,5308,71,71,0,71,0.20,1.50,0.39,0.88
2014-03-23 15:20:00,2,3975,71,1.10,2,2,0,2,1978,7703,1955,3020,71,71,0,71,0.00,2.15,0.61,1.08
2014-03-23 15:30:00,2,3358,71,1.21,2,2,0,2,2182,4911,783,3286,71,71,0,71,0.50,2.45,0.58,1.08
2014-03-23 15:40:00,2,3199,71,1.66,2,2,0,2,2300,4299,708,2866,71,71,0,71,0.65,3.20,0.75,1.65
2014-03-23 15:50:00,2,3458,71,1.18,2,2,0,2,2257,5280,867,3426,71,71,0,71,0.25,2.15,0.59,0.97
2014-03-23 16:00:00,2,6705,71,0.48,2,2,0,2,3363,12273,2902,5616,71,71,0,71,0.00,1.50,0.45,0.40
2014-03-23 16:10:00,2,12891,71,0.07,2,2,0,2,9418,18202,2940,12060,71,71,0,71,0.00,0.15,0.05,0.05
2014-03-23 16:20:00,2,18072,50,0.03,2,2,0,2,12010,23720,4112,19714,0,71,33,71,0.00,0.20,0.06,0.00
2014-03-23 16:30:00,2,19268,64,0.06,2,2,0,2,9883,32308,7314,16586,0,71,21,71,0.00,0.30,0.10,0.00
2014-03-23 16:40:00,2,28857,28,0.00,2,2,0,2,8044,36742,8771,32466,0,71,35,0,0.00,0.00,0.00,0.00
2014-03-23 16:50:00,2,21043,44,0.03,2,2,0,2,16344,27755,3242,21202,0,71,31,56,0.00,0.10,0.04,0.00
2014-03-23 17:00:00,2,18590,73,0.07,2,2,0,2,15736,22560,1885,18299,71,77,3,71,0.00,0.30,0.09,0.03
2014-03-23 17:10:00,2,31704,74,0.01,2,2,0,2,23602,39537,5235,30008,71,78,3,74,0.00,0.05,0.02,0.00
2014-03-23 17:20:00,2,37856,23,0.00,2,2,0,2,18869,46434,7903,41325,0,78,36,0,0.00,0.00,0.00,0.00
2014-03-23 17:30:00,2,48606,0,0.00,2,2,0,2,46184,50000,1538,49285,0,0,0,0,0.00,0.00,0.00,0.00
2014-03-23 17:40:00,2,49198,0,0.00,2,2,0,2,43590,50000,1889,50000,0,0,0,0,0.00,0.00,0.00,0.00
2014-03-23 17:50:00,2,47050,0,0.00,2,2,0,2,36284,50000,4410,49116,0,0,0,0,0.00,0.00,0.00,0.00
2014-03-23 18:00:00,2,48011,0,0.00,2,2,0,2,42335,50000,2589,49121,0,0,0,0,0.00,0.00,0.00,0.00
2014-03-23 18:10:00,2,36986,0,0.00,2,2,0,2,28368,50000,7616,34695,0,0,0,0,0.00,0.00,0.00,0.00
2014-03-23 18:20:00,2,30838,21,0.02,2,2,0,2,7076,49863,12611,27184,0,71,33,0,0.00,0.20,0.06,0.00
2014-03-23 18:30:00,2,31640,0,0.00,2,2,0,2,19781,42332,7154,32548,0,0,0,0,0.00,0.00,0.00,0.00
2014-03-23 18:40:00,2,28600,0,0.00,2,2,0,2,18227,37824,6010,29640,0,0,0,0,0.00,0.00,0.00,0.00
2014-03-23 18:50:00,2,28596,0,0.00,2,2,0,2,24215,33486,3080,28012,0,0,0,0,0.00,0.00,0.00,0.00
2014-03-23 19:00:00,2,29208,0,0.00,2,2,0,2,23144,40961,4881,28366,0,0,0,0,0.00,0.00,0.00,0.00
2014-03-23 19:10:00,2,19877,0,0.00,2,2,0,2,11617,41589,10265,14218,0,0,0,0,0.00,0.00,0.00,0.00
2014-03-23 19:20:00,2,6374,5,0.00,2,2,0,2,1588,15753,5405,3452,0,10,5,5,0.00,0.00,0.00,0.00
2014-03-23 19:30:00,2,755,24,0.00,2,2,0,2,254,2476,667,488,10,34,11,32,0.00,0.00,0.00,0.00
2014-03-23 19:40:00,2,14809,33,0.00,2,2,0,2,570,29749,11630,16122,20,34,4,34,0.00,0.00,0.00,0.00
2014-03-23 19:50:00,2,28839,43,0.01,2,2,0,2,22548,36364,4308,29135,0,77,26,41,0.00,0.05,0.02,0.00
2014-03-23 20:00:00,2,26646,35,0.00,2,2,0,2,16101,31261,4751,28392,20,71,23,20,0.00,0.00,0.00,0.00
2014-03-23 20:10:00,2,37850,76,0.00,2,2,0,2,27619,46749,5424,38151,71,78,3,77,0.00,0.00,0.00,0.00
2014-03-23 20:20:00,2,37369,77,0.01,2,2,0,2,24800,47718,7224,38738,77,78,0,77,0.00,0.05,0.02,0.00
2014-03-23 20:30:00,2,20767,74,0.08,2,2,0,2,15004,34260,6071,18750,71,78,3,71,0.00,0.25,0.08,0.05
2014-03-23 20:40:00,2,32945,57,0.03,2,2,0,2,14070,46425,8773,35277,0,71,28,71,0.00,0.30,0.09,0.00
2014-03-23 20:50:00,2,33622,65,0.04,2,2,0,2,12754,46120,10808,34838,41,71,12,71,0.00,0.20,0.07,0.00
2014-03-23 21:00:00,2,32373,14,0.01,2,2,0,2,13280,48183,11153,31849,0,71,28,0,0.00,0.05,0.02,0.00
2014-03-23 21:10:00,2,14911,71,0.17,2,2,0,2,9635,26284,4725,14044,71,71,0,71,0.00,0.50,0.15,0.17
2014-03-23 21:20:00,2,22371,71,0.04,2,2,0,2,15735,31318,4612,22069,71,71,0,71,0.00,0.20,0.06,0.00
2014-03-23 21:30:00,2,29414,7,0.00,2,2,0,2,23910,32491,3067,30408,0,71,21,0,0.00,0.00,0.00,0.00
2014-03-23 21:40:00,2,26854,0,0.00,2,2,0,2,21684,35193,3668,26268,0,0,0,0,0.00,0.00,0.00,0.00
2014-03-23 21:50:00,2,13477,7,0.00,2,2,0,2,2686,26762,6923,14116,0,71,21,0,0.00,0.00,0.00,0.00
2014-03-23 22:00:00,2,14972,47,0.04,2,2,0,2,6025,21841,4278,14994,10,71,30,71,0.00,0.40,0.12,0.00
2014-03-23 22:10:00,2,16104,1,0.00,2,2,0,2,3226,33294,11435,9788,0,10,3,0,0.00,0.00,0.00,0.00
2014-03-23 22:20:00,2,9096,27,0.01,2,2,0,2,5389,12444,2265,9162,0,71,29,10,0.00,0.10,0.03,0.00
2014-03-23 22:30:00,2,17584,47,0.14,2,2,0,2,5893,23704,6210,20112,10,71,30,71,0.00,1.00,0.29,0.00
2014-03-23 22:40:00,2,19386,36,0.06,2,2,0,2,10831,25927,5707,21650,0,71,36,36,0.00,0.25,0.09,0.00
2014-03-23 22:50:00,2,32252,0,0.00,2,2,0,2,19488,40030,6174,34056,0,0,0,0,0.00,0.00,0.00,0.00
2014-03-23 23:00:00,2,31661,0,0.00,2,2,0,2,26438,41654,4092,30786,0,0,0,0,0.00,0.00,0.00,0.00
2014-03-23 23:10:00,2,32848,0,0.00,2,2,0,2,25646,47309,6735,30243,0,0,0,0,0.00,0.00,0.00,0.00
2014-03-23 23:20:00,2,28188,0,0.00,2,2,0,2,20961,33539,3878,28832,0,0,0,0,0.00,0.00,0.00,0.00
2014-03-23 23:30:00,2,27988,0,0.00,2,2,0,2,18199,43411,7727,25503,0,0,0,0,0.00,0.00,0.00,0.00
2014-03-23 23:40:00,2,17795,71,0.06,2,2,0,2,10490,24734,4304,16662,71,71,0,71,0.00,0.15,0.05,0.05
2014-03-23 23:50:00,2,24506,14,0.01,2,2,0,2,13027,32583,6380,26758,0,71,28,0,0.00,0.15,0.05,0.00
